Regional Weather Roundup
Issued by NWS

Home | Current Version | Previous Version | Text Only | Print | Product List | Glossary Off
Versions: 1 2 3 4 5 6 7 8 9 10 11 12 13 14 15 16 17 18 19 20 21 22 23 24 25 26 27

000
ASUS45 KBOU 260807
RWRCO

WEATHER ROUNDUP FOR COLORADO
NATIONAL WEATHER SERVICE DENVER/BOULDER CO
200 AM MDT SUN OCT 26 2014

NOTE: "FAIR" INDICATES FEW OR NO CLOUDS BELOW 12000 FEET WITH NO
SIGNIFICANT WEATHER AND/OR OBSTRUCTIONS TO VISIBILITY.

COZ001>005-013-030-031-260900-
...NORTHWEST COLORADO...

CITY           SKY/WX    TMP DP  RH WIND       PRES   REMARKS
CRAIG          PTCLDY    37  29  72 CALM      30.06F
HAYDEN         NOT AVBL
MEEKER         CLEAR     40  32  73 NE5       30.07F
MOUNT WERNER   NOT AVBL
STEAMBOAT SPGS PTCLDY    43  26  51 SW3       30.10F
WALDEN         PTCLDY    36  25  64 SE10      30.13S
$$

COZ006>008-011-260900-
...WEST CENTRAL VALLEYS...

CITY           SKY/WX    TMP DP  RH WIND       PRES   REMARKS
GRAND JUNCTION CLEAR     58  33  39 E12       30.02S
MONTROSE       CLEAR     50  34  54 SE7       30.11F
EAGLE          CLEAR     43  30  61 NE5       30.13S
RIFLE          CLEAR     48  34  58 CALM      30.04F
DELTA          CLEAR     54  37  51 NE6       30.07S
NUCLA          CLEAR     54  34  47 E8        30.15F
$$

COZ017>023-064>068-260900-
...SOUTHWEST COLORADO...

CITY           SKY/WX    TMP DP  RH WIND       PRES   REMARKS
DURANGO        MOCLDY    44  35  70 N5        30.21F
CORTEZ         CLEAR     45  35  68 E5        30.16F
PAGOSA SPRINGS PTCLDY    40  31  67 CALM      30.27S
TELLURIDE      CLEAR    N/A N/A N/A SE10G18   30.30F
WOLF CREEK PAS CLOUDY    36  28  75 SW29G36     N/A
$$

COZ009-010-012-014-032>034-037-058>063-260900-
...CENTRAL COLORADO...

CITY           SKY/WX    TMP DP  RH WIND       PRES   REMARKS
ASPEN          MOCLDY    45  29  53 VRB7      30.17F
BUENA VISTA    PTCLDY    42  24  50 SE7       30.19F
COPPER MTN     NOT AVBL
BERTHOUD PASS  FAIR      34  32  93 W21G31    30.38F WCI  22
COTTONWOOD PAS PTCLDY    50  27  40 W12G23    30.28F
GUNNISON       PTCLDY    34  25  69 CALM      30.26F
KREMMLING      PTCLDY    36  25  64 CALM        N/A
LEADVILLE      CLEAR     38  21  50 E5        30.27F
MONARCH PASS   CLEAR     36  27  69 W36G41    30.48F
SALIDA         PTCLDY    49  26  41 CALM      30.25S
SUNLIGHT       PTCLDY    43  32  65 SW3       30.30F
WILKERSON PASS NOT AVBL
$$

COZ069>075-260900-
...SAN LUIS VALLEY/SANGRE DE CRISTO MOUNTAINS...

CITY           SKY/WX    TMP DP  RH WIND       PRES   REMARKS
ALAMOSA        CLEAR     41  25  53 SE8       30.22F
LA VETA PASS   CLEAR     45  27  49 S12G24    30.29F
SAGUACHE       PTCLDY    39  23  52 NW9       30.24F
$$

COZ035-036-038>040-260900-
...NORTHERN COLORADO FRONT RANGE...

CITY           SKY/WX    TMP DP  RH WIND       PRES   REMARKS
DENVER INTL AP CLEAR     53  24  32 SW14      29.94F
DMNS CITY PARK   N/A     53  25  33 S6        29.94F
AURORA         CLEAR     52  24  34 S13       29.96F
FRONT RANGE AP NOT AVBL
ERIE MUNI ARPT CLEAR     40  31  70 CALM      29.93F
BOULDER MUN AP CLEAR     64  27  24 SW10      29.93F
CENTENNIAL     CLEAR     56  24  29 SW13      29.97F
BROOMFIELD     CLEAR     57  23  26 SW5       29.96F
FORT COLLINS   CLEAR     45  28  53 CALM      29.93F
LONGMONT       CLEAR     45  32  61 E5        29.95F
$$

COZ041-046-047-076>085-087-088-260900-
...PIKES PEAK/PALMER DIVIDE AND SOUTHERN FOOTHILLS...

CITY           SKY/WX    TMP DP  RH WIND       PRES   REMARKS
COLO. SPRINGS  CLEAR     50  27  40 NE7       30.02F
A. F. ACADEMY  CLEAR     49  22  35 W15       30.03F
ELLICOTT       NOT AVBL
FALCON         CLEAR     48  24  38 NW8       30.06F
FORT CARSON    CLEAR     52  25  35 N6        29.99F
LIMON          CLEAR     36  31  82 N3        29.95F
MONUMENT HILL  CLEAR     52  23  32 SW12      30.06F
TRINIDAD       CLEAR     57  26  30 W17       30.02F
$$

COZ042>045-048>051-090-091-260900-
...NORTHEAST COLORADO...

CITY           SKY/WX    TMP DP  RH WIND       PRES   REMARKS
GREELEY ARPT   CLEAR     37  25  60 NW7       29.92F
AKRON          CLEAR     51  35  54 S9        29.89F
BURLINGTON     PTCLDY    43  34  70 W8        29.88F
WRAY           CLEAR     42  37  83 W5        29.86F
STERLING       CLEAR     41  36  81 CALM      29.87F
HOLYOKE        CLEAR     43  41  93 CALM      29.86F
FORT MORGAN    CLEAR     44  30  57 W5        29.89F
$$

COZ086-089-092>099-260900-
...SOUTHEAST COLORADO...

CITY           SKY/WX    TMP DP  RH WIND       PRES   REMARKS
PUEBLO         CLEAR     48  28  46 SW5       29.95F
LA JUNTA       PTCLDY    50  34  54 W12       29.91R
LAMAR          CLEAR     56  34  43 W8        29.86S
SPRINGFIELD      N/A     51  41  68 SW6       29.92F
$$



USA.gov is the U.S. government's official web portal to all federal, state and local government web resources and services.